Location: Rosenheim
(47.8408°N, 12.2113°E)
Time: 07:58:27
(UTC+02:00)

ISS - Visible Passes

Search period start: 09 May 2021 00:00
Search period end: 19 May 2021 00:00
Orbit: 418 x 421 km, 51.6° (Epoch: 08 May)

Date Brightness Start Highest point End Pass type
(mag) Time Alt. Az. Time Alt. Az. Time Alt. Az.
09 May -2.2 02:03:26 32° ENE 02:03:26 32° ENE 02:05:26 10° ENE visible
09 May -2.5 03:36:23 13° WNW 03:39:07 41° N 03:42:22 10° ENE visible
10 May -1.1 01:17:26 14° ENE 01:17:26 14° ENE 01:17:59 10° ENE visible
10 May -2.7 02:50:22 30° WNW 02:51:36 44° N 02:54:52 10° ENE visible
10 May -2.9 04:25:28 10° WNW 04:28:47 52° NNE 04:32:06 10° E visible
11 May -2.8 02:04:21 48° N 02:04:21 48° N 02:07:23 10° ENE visible
11 May -2.6 03:37:59 10° WNW 03:41:16 45° N 03:44:33 10° E visible
12 May -1.9 01:18:16 26° NE 01:18:16 26° NE 01:19:56 10° ENE visible
12 May -2.5 02:51:12 15° WNW 02:53:44 42° N 02:56:59 10° ENE visible
12 May -3.7 04:27:24 10° WNW 04:30:48 87° NNE 04:34:11 10° ESE visible
13 May -1.0 00:32:06 13° ENE 00:32:06 13° ENE 00:32:30 10° ENE visible
13 May -2.5 02:05:01 29° NW 02:06:12 41° N 02:09:26 10° ENE visible
13 May -3.4 03:39:58 10° WNW 03:43:20 66° NNE 03:46:42 10° ESE visible
14 May -2.6 01:18:38 44° N 01:18:40 44° N 01:21:55 10° ENE visible
14 May -3.0 02:52:31 10° WNW 02:55:51 53° NNE 02:59:10 10° E visible
14 May -3.5 04:29:24 10° WNW 04:32:39 45° SSW 04:35:54 10° SE visible
14 May -3.7 22:50:59 10° SW 22:54:16 52° SSE 22:55:39 30° E visible
15 May -2.9 00:27:50 10° W 00:31:08 49° NNW 00:34:27 10° ENE visible
15 May -2.7 02:05:03 10° WNW 02:08:20 45° N 02:11:36 10° E visible
15 May -3.9 03:41:54 10° WNW 03:45:16 67° SSW 03:48:37 10° SE visible
15 May -3.2 22:03:50 10° SSW 22:06:55 34° SE 22:10:01 10° ENE visible
15 May -3.2 23:40:17 10° W 23:43:38 60° NNW 23:46:59 10° ENE visible
16 May -2.5 01:17:32 10° WNW 01:20:47 42° N 01:24:02 10° ENE visible
16 May -3.8 02:54:27 10° WNW 02:57:50 87° NNE 03:01:13 10° ESE visible
16 May -2.4 04:31:47 10° W 04:34:19 20° SW 04:36:51 10° S visible
16 May -3.7 22:52:47 10° WSW 22:56:08 78° NNW 22:59:32 10° ENE visible
17 May -2.5 00:30:01 10° WNW 00:33:15 41° N 00:36:29 10° ENE visible
17 May -3.4 02:07:00 10° WNW 02:10:23 66° NNE 02:13:44 10° ESE visible
17 May -3.0 03:44:02 10° W 03:47:02 30° SW 03:50:01 10° SSE visible
17 May -3.9 22:05:21 10° WSW 22:08:42 77° SSE 22:12:05 10° ENE visible
17 May -2.6 23:42:27 10° W 23:45:42 43° N 23:48:57 10° ENE visible
18 May -3.0 01:19:34 10° WNW 01:22:53 53° NNE 01:22:56 53° NNE visible
18 May -3.6 21:18:01 10° SW 21:21:18 52° SSE 21:24:35 10° ENE visible
18 May -2.8 22:54:52 10° W 22:58:10 49° NNW 23:01:28 10° ENE visible
